Regional Weather Roundup
Issued by NWS Glasgow, MT

Home | Current Version | Previous Version | Text Only | Print | Product List | Glossary On
Versions: 1 2 3 4 5 6 7 8 9 10 11 12 13 14 15 16 17 18 19 20 21 22 23 24 25 26 27 28 29 30 31 32 33 34 35 36 37 38 39 40 41 42 43 44 45 46 47 48 49 50
000
ASUS45 KGGW 280415
RWRGGW
HOURLY WEATHER ROUNDUP FOR NORTHEAST MONTANA
NATIONAL WEATHER SERVICE GLASGOW MONTANA
900 PM MST THU NOV 27 2014

NOTE: "FAIR" INDICATES FEW OR NO CLOUDS BELOW 12,000 FEET WITH NO
SIGNIFICANT WEATHER AND/OR OBSTRUCTIONS TO VISISBILITY.

NORTHEAST MONTANA


CITY           SKY/WX    TMP DP  RH WIND       PRES   REMARKS
GLASGOW        CLOUDY    24  21  88 E13       29.73F FOG
PLENTYWOOD       N/A     17  15  92 E10         N/A
WOLF POINT     CLOUDY    21  18  88 NE10      29.79S
JORDAN           N/A     29  28  96 CALM      29.70F
WINNETT          N/A     39  32  76 SW3         N/A
SIDNEY         CLEAR     18  16  93 N8        29.81R
GLENDIVE       PTCLDY    30  28  93 E7        29.74F
MALTA            N/A     27  27 100 NE3         N/A

FORT PECK REPORTS


CITY           SKY/WX    TMP DP  RH WIND       PRES   REMARKS
FORT PECK        N/A     25  25 100 E15         N/A
THE PINES        N/A     33  32  96 NE3         N/A

SOUTHEAST MONTANA


CITY           SKY/WX    TMP DP  RH WIND       PRES   REMARKS
BILLINGS       CLOUDY    49  29  46 SW17      29.78F
MILES CITY     PTCLDY    37  32  82 S7        29.75F
BAKER          MOCLDY    34  30  85 CALM      29.76F
LIVINGSTON     MOCLDY    53  33  46 SW44G54   29.81F

CENTRAL MONTANA


CITY           SKY/WX    TMP DP  RH WIND       PRES   REMARKS
HAVRE          FOG       28  27  96 N3        29.70S VSB 3/4
LEWISTOWN      MOCLDY    44  32  62 SW9       29.73F
GREAT FALLS    PTCLDY    46  35  65 W10G21    29.69S
CUT BANK       CLEAR     39  35  86 W17       29.62F
HELENA         CLOUDY    49  35  58 VRB6      29.79S
BUTTE          CLOUDY    44  32  62 S10G21    29.91F
BOZEMAN        CLOUDY    47  34  60 W6        29.87F

WESTERN MONTANA


CITY           SKY/WX    TMP DP  RH WIND       PRES   REMARKS
MISSOULA       CLOUDY    46  38  73 E5        29.84F
KALISPELL      NOT AVBL

NORTH DAKOTA


CITY           SKY/WX    TMP DP  RH WIND       PRES   REMARKS
WILLISTON      PTCLDY    13  10  88 E5        29.82F
DICKINSON      CLEAR     20  17  88 S7        29.74F
MINOT          CLOUDY    12   6  77 E13       29.91F WCI  -3
BISMARCK       PTCLDY    10   5  80 E10       29.92F WCI  -4

SOUTHERN SASKATCHEWAN


CITY           SKY/WX    TMP DP  RH WIND       PRES   REMARKS
REGINA         FLURRIES  16  12  86 E13       29.89R
ESTEVAN        FLURRIES   9   5  85 E12G20    29.89F WCI  -6
SWIFT CURRENT  CLOUDY    16  14  93 E17G23    29.72S FOG     WCI   0




USA.gov is the U.S. government's official web portal to all federal, state and local government web resources and services.